SCP
0 0 0 0 0 -0 -0 0 0 0 0 0 0 0 0 0 0 -0 -0 -0 -0 -0 0 -0 0 0 0 0 0 0 0 0 0 0 0 0 0 0 0 0 0 0 0 0
0 0 0 0 0 0 0 0 0 0 0 0 0 0 0 0 0 0 0 0 0 0 0 -0 -0 0 0 0 0 0 0 0 0 0 0 0 0 0 0 0 0 0 0 0
0 0 0 0 0 0 0 0 0 0 0 0 0 -0 -0 -0 -0 -0 0 0 0 0 0 0 0 0 0 0 0 0 0 0 0 0 0 0 0 0 0 0 0 0 0 0
0 0 0 0 0 0 0 0 0 0 0 0 0 0 0 0 0 0 0 0 0 0 0 0 0 0 0 -0 0 0 0 0 0 0 0 0 0 0 0 0 0 0 0 0
0 0 0 0 0 0 0 0 0 0 0 0 0 0 0 0 0 0 0 0 0 0 -0 -0 -0 -0 -0 -0 -0 -0 0 0 0 0 0 0 0 0 0 0 0 0 0 0
0 0 0 0 0 0 0 0 0 0 0 0 0 0 0 0 0 0 -0 -0 -0 -0 -0 -0 -0 -0 -0 -0 -0 -0 0 0 0 0 0 0 0 0 0 0 0 0 0 0
0 0 0 0 0 0 0 0 0 0 0 0 0 0 0 0 0 0 -0 -0 -0 -0 -0 -0 -0 -0 -0 -0 -0 -0 -0 0 0 0 0 0 0 0 0 0 0 0 0 0
0 0 0 0 0 0 0 0 0 0 0 0 -0 -0 -0 -0 -0 -0 -0 -0 -0 -0 -0 -0 -0 -0 -0 -0 -0 -0 -0 -0 0 0 0 0 0 0 0 0 0 0 0 0
0 0 0 0 0 0 0 0 0 0 0 0 -0 -0 -0 -0 -0 -0 -0 -0 -0 -0 -0 -0 -0 -0 -0 -0 -0 -0 -0 -0 0 0 0 0 0 0 0 0 0 0 0 0
0 0 0 0 0 0 0 0 0 0 0 0 -0 -0 -0 -0 -0 -0 -0 -0 -0 -0 -0 -0 -0 -0 -0 -0 0 -0 -0 -0 -0 -0 0 0 0 0 0 0 0 0 0 0
0 0 0 0 0 0 0 0 0 0 0 0 -0 -0 -0 -0 -0 -0 -0 -0 -0 -0 -0 -0 -0 0 0 -0 -0 -0 0 0 -0 0 0 0 0 0 0 0 0 0 0 0
0 0 0 0 0 0 0 0 0 0 0 0 0 0 0 0 -0 -0 -0 -0 -0 -0 -0 -0 0 0 0 0 0 0 0 0 0 0 0 0 0 0 0 0 0 0 0 0
0 0 0 0 -0 0 0 0 0 0 0 0 0 0 0 0 0 0 0 0 0 0 -0 0 0 0 0 0 0 0 0 0 0 0 0 0 0 0 0 0 0 0 0 0
0 0 0 0 0 0 0 0 0 0 0 0 0 0 0 0 0 0 0 0 0 0 0 0 0 0 0 0 0 0 0 0 0 0 0 0 0 0 0 0 0 0 0 0
0 0 0 0 0 0 0 0 0 0 0 0 0 0 0 0 0 0 0 0 0 0 0 0 0 0 0 0 0 0 0 0 0 0 0 0 0 0 0 0 0 0 0 0
0 0 0 0 0 0 0 0 0 0 0 0 0 0 0 0 0 0 0 0 0 0 0 0 0 0 0 0 0 0 0 0 0 0 0 0 0 0 0 0 0 0 0 0
0 0 0 0 0 0 0 0 0 0 0 0 0 0 0 0 0 0 0 0 0 0 0 0 0 0 0 0 0 0 0 0 0 0 0 0 0 0 0 0 0 0 0 0
0 0 0 0 0 0 0 0 0 0 0 0 0 0 0 0 0 0 0 0 0 0 0 0 0 0 0 0 0 0 0 0 0 0 0 0 0 0 0 0 0 0 0 0
0 0 0 0 0 -0 -0 -0 0 0 0 0 0 0 0 0 0 0 0 0 0 0 0 0 0 0 0 0 0 0 0 0 0 0 0 0 0 0 0 0 0 0 0 0
0 0 0 0 -0 -0 -0 -0 0 0 -0 -0 -0 -0 -0 -0 0 0 0 0 0 0 0 0 0 0 0 0 0 -0 0 0 0 0 0 0 0 0 0 0 0 0 0 0
0 0 0 0 -0 -0 0 0 0 0 0 0 0 0 0 0 0 -0 -0 0 0 0 -0 -0 -0 0 0 -0 -0 -0 -0 0 0 0 0 0 0 0 0 0 0 0 0 0
0 0 0 0 0 0 0 0 0 0 0 0 0 0 0 -0 -0 -0 -0 -0 -0 -0 -0 -0 -0 0 -0 -0 -0 -0 -0 -0 -0 0 0 0 0 0 0 0 0 0 0 0
0 0 0 0 0 0 0 0 0 0 -0 -0 -0 -0 -0 -0 -0 -0 -0 0 -0 -0 -0 -0 -0 0 -0 -0 -0 -0 -0 -0 -0 0 0 0 0 0 0 0 0 0 0 0
0 0 0 0 0 0 0 0 0 0 0 0 0 0 -0 -0 0 0 -0 -0 -0 -0 -0 -0 -0 0 -0 -0 -0 -0 -0 -0 -0 0 0 0 0 0 0 0 0 0 0 0
0 0 0 0 0 0 0 0 0 0 0 0 0 0 0 0 0 0 0 0 0 0 0 0 0 0 -0 -0 -0 -0 -0 -0 -0 -0 0 0 0 0 0 0 0 0 0 0
0 0 0 0 0 0 0 0 0 0 0 0 0 0 0 0 0 0 0 0 0 0 0 0 0 0 -0 -0 -0 -0 -0 -0 -0 0 0 0 0 0 0 0 0 0 0 0
0 0 0 0 0 0 0 0 0 0 0 0 0 0 0 0 0 0 0 0 0 0 0 0 0 0 -0 -0 -0 -0 -0 -0 0 0 -0 -0 0 0 0 0 0 0 0 0
Wind_Speed_500mb
12 7 12 15 13 27 39 36 16 39 35 29 11 7 17 30 37 27 39 47 64 66 63 60 60 68 68 66 65 63 59 55 51 48 47 50 55 59 63 66 73 77 79 82
4 1 2 16 14 13 27 26 19 39 44 14 19 21 30 32 23 44 55 62 57 56 54 49 64 70 72 72 68 67 67 64 57 54 55 54 55 61 64 68 70 74 78 78
5 2 7 4 27 20 10 17 19 27 46 8 19 17 20 37 60 57 45 40 34 36 51 65 72 75 78 74 70 68 70 67 62 60 61 59 59 61 66 70 70 73 75 76
3 7 5 13 6 26 33 34 29 30 37 41 45 35 33 34 36 34 41 40 44 56 69 74 78 82 78 80 75 68 72 70 63 61 63 63 65 66 64 68 73 75 76 77
8 7 9 17 9 10 11 15 16 21 28 39 46 38 16 34 42 33 41 47 58 67 76 79 78 81 86 87 88 76 68 75 67 61 64 63 67 69 68 68 69 71 74 72
4 6 12 8 3 11 9 7 38 37 27 34 30 6 5 54 57 59 57 67 73 78 81 83 83 86 92 94 92 86 73 69 74 66 62 65 66 68 74 74 73 72 73 72
7 5 14 9 3 7 11 6 27 36 34 33 11 13 39 43 56 61 70 81 88 92 94 92 95 96 96 99 96 90 86 76 69 73 74 68 65 69 74 81 81 80 78 77
6 5 11 4 9 5 10 23 33 32 33 30 28 38 45 52 55 72 80 88 93 100 103 102 97 92 98 99 99 96 94 86 74 70 73 74 67 65 73 84 88 89 86 84
14 8 9 40 45 26 21 14 28 34 42 48 55 61 69 74 69 75 87 95 95 96 104 101 97 91 99 99 99 101 98 94 85 78 73 70 72 68 72 82 93 96 94 92
8 15 17 36 25 28 39 26 31 37 49 53 57 63 75 80 80 81 81 84 95 106 108 108 100 100 97 99 102 102 102 95 88 85 80 74 72 75 77 83 92 101 101 98
1 16 22 30 31 54 42 43 49 53 53 56 66 77 78 81 83 80 82 93 91 100 102 102 102 102 103 101 97 98 97 99 92 85 86 82 77 77 82 85 91 99 104 101
4 12 10 18 48 45 46 55 63 70 80 69 66 74 76 81 81 88 92 93 94 88 88 94 96 99 96 93 87 92 96 96 94 89 86 84 80 79 80 83 89 95 98 98
1 22 27 27 20 21 52 57 60 61 60 71 69 70 75 82 84 85 86 89 87 86 85 88 87 87 83 83 83 86 90 94 95 85 81 82 77 74 78 80 84 89 91 94
10 19 4 19 31 50 53 56 57 62 59 55 65 65 66 67 69 73 75 72 70 72 71 69 72 74 71 71 74 77 79 82 81 81 75 73 74 70 71 76 78 88 85 86
4 21 21 32 35 39 42 48 53 56 58 60 58 58 58 61 63 63 59 57 57 55 55 62 67 69 66 65 67 69 68 68 64 65 66 67 66 65 69 75 82 84 84 82
14 14 14 25 30 35 41 46 49 52 55 57 57 56 55 53 51 49 50 50 52 53 56 61 63 66 66 63 62 61 57 51 50 51 55 56 60 61 67 74 79 83 85 86
7 5 19 23 30 34 37 38 39 43 48 50 50 49 48 49 45 46 48 48 44 46 54 60 64 65 63 60 58 56 52 47 42 43 43 50 56 57 65 68 73 72 71 77
10 11 13 16 22 27 28 28 32 35 40 42 41 40 41 46 50 49 48 52 54 51 54 58 60 61 64 64 59 54 47 41 35 32 33 35 37 43 50 55 60 65 62 68
2 5 7 11 13 14 18 24 29 34 35 36 37 39 38 39 43 47 47 54 60 65 67 64 63 62 63 61 60 55 49 43 34 26 22 19 21 23 27 35 41 47 57 58
1 3 3 6 12 12 13 15 22 26 28 32 34 36 40 45 46 48 52 53 56 57 58 62 64 64 62 60 59 58 58 59 58 52 42 29 18 9 2 10 17 23 28 33
3 1 2 6 8 10 12 15 19 22 27 33 37 40 42 41 44 49 55 60 59 58 59 60 63 64 63 61 60 60 60 59 57 54 52 48 43 41 37 30 24 19 14 13
7 4 0 4 6 9 12 14 18 22 26 30 34 38 43 45 45 44 46 53 57 58 60 60 60 60 60 57 58 59 59 55 52 49 48 46 42 39 35 29 25 21 16 12
8 5 4 5 5 6 12 15 20 25 29 33 37 40 42 44 47 53 56 52 53 55 56 57 58 59 58 56 57 58 57 55 53 51 49 47 43 38 31 27 23 18 13 9
9 8 6 6 6 8 12 16 21 24 27 28 30 34 40 42 35 40 41 45 48 51 54 55 56 55 56 57 58 57 56 56 55 54 50 45 42 39 36 34 30 26 24 22
11 11 9 7 9 13 17 20 22 23 22 23 26 28 32 36 41 44 45 46 48 51 53 53 53 54 56 56 55 55 56 56 55 53 51 50 48 45 43 41 38 36 35 33
15 12 11 11 14 17 21 24 25 26 26 25 27 30 31 34 39 43 44 45 48 50 51 53 55 57 57 57 57 56 56 55 53 52 52 51 49 48 46 45 43 42 41 41
15 15 15 15 17 20 23 26 26 24 26 29 29 32 37 41 43 45 46 48 50 51 53 54 57 58 59 60 59 58 57 55 54 54 53 52 51 51 51 50 49 48 47 46
Wind_Direction_500mb
258 193 124 298 231 202 207 222 212 247 252 250 257 332 349 337 324 325 328 326 320 323 331 335 342 340 336 333 330 330 324 317 307 304 299 284 276 268 260 249 243 242 241 239
274 294 321 175 229 266 230 243 251 259 270 293 275 332 333 318 312 322 316 314 317 323 334 347 340 336 331 332 330 325 322 321 317 310 302 294 280 268 257 251 248 245 244 244
257 143 71 349 228 227 252 244 233 251 259 321 288 281 294 301 296 295 313 330 355 359 347 344 341 337 338 330 329 324 319 316 314 313 307 297 288 274 259 253 250 247 246 246
163 53 204 239 183 207 227 244 249 263 271 276 282 297 307 58 44 18 8 1 351 341 337 335 335 334 331 326 323 324 322 313 308 308 305 302 291 282 271 257 249 247 245 244
161 190 312 309 246 197 175 260 247 254 269 275 291 295 93 18 12 4 347 341 337 335 334 334 335 330 326 326 326 320 320 323 311 301 300 295 289 284 277 265 255 249 246 244
112 180 216 256 328 215 131 282 28 28 30 16 1 12 37 335 339 335 336 334 331 329 329 329 330 327 321 322 325 328 320 318 318 303 292 294 290 280 275 267 260 252 248 246
185 219 275 246 308 49 127 245 29 27 24 20 25 345 316 326 320 323 322 322 324 322 323 322 324 323 316 315 317 321 319 313 312 313 298 286 287 282 269 265 259 255 251 249
163 191 285 29 104 178 7 28 13 9 8 357 336 327 325 326 324 322 319 319 319 318 317 319 320 320 315 313 312 311 313 311 307 307 307 290 283 279 274 263 257 253 250 247
179 168 75 63 92 77 41 29 8 355 343 339 333 326 322 321 320 317 316 316 317 315 314 314 316 316 312 314 312 307 305 307 306 302 301 297 285 278 272 262 255 252 249 247
85 2 85 103 83 38 14 6 340 333 329 328 321 320 316 316 316 316 318 315 312 311 310 309 310 309 309 310 310 306 302 301 302 300 298 296 287 278 269 263 255 252 250 247
206 58 113 70 23 353 344 334 329 328 328 324 319 316 316 315 315 315 310 311 312 309 309 306 306 304 304 307 308 304 300 299 297 296 294 291 289 282 273 266 260 254 252 251
121 54 341 298 325 335 335 338 331 326 320 319 319 315 316 311 312 313 313 314 314 313 306 305 304 303 302 303 304 300 298 296 295 296 292 287 285 284 278 270 260 255 253 250
344 307 294 303 326 310 325 326 324 321 318 318 318 314 312 313 313 314 316 316 314 311 310 310 309 307 309 305 302 297 294 292 291 290 287 284 281 280 277 272 261 254 251 250
303 340 120 320 321 330 328 325 323 321 324 320 318 319 318 320 324 324 323 320 317 315 316 317 317 316 316 311 305 300 297 293 289 286 284 276 276 277 276 265 256 249 244 243
268 327 308 312 323 330 331 333 334 334 334 333 333 332 333 331 331 333 334 332 328 329 331 330 330 329 326 320 316 311 307 300 293 286 282 276 278 277 273 264 256 249 245 239
301 324 343 336 343 345 347 347 342 341 341 339 340 340 340 337 337 344 351 353 349 349 349 347 346 342 339 332 325 320 314 306 294 285 285 286 282 279 268 256 250 245 245 241
341 356 351 355 351 351 357 350 338 343 342 344 343 345 349 350 352 357 1 8 9 7 6 5 359 356 350 346 343 336 328 316 304 294 283 274 272 271 260 248 242 236 230 225
346 355 352 347 347 354 354 350 347 353 354 350 348 350 356 2 3 3 1 9 10 16 12 16 12 9 9 5 2 356 347 337 328 313 301 287 268 251 239 231 224 220 209 192
353 7 347 342 334 348 345 358 2 2 357 355 358 3 2 2 5 10 10 13 11 11 12 14 16 17 20 20 19 22 20 16 8 1 349 321 290 262 241 230 221 211 200 190
292 318 321 322 303 321 347 0 8 7 2 4 5 5 8 11 10 8 15 17 14 10 9 13 16 18 18 21 26 31 35 40 41 43 42 39 38 45 111 197 184 179 182 182
178 223 28 317 306 331 344 7 10 3 6 4 3 5 5 5 9 5 4 6 6 6 8 10 13 14 14 17 21 25 30 37 41 44 50 54 57 60 63 68 79 90 107 134
176 175 239 293 313 330 342 5 4 358 358 357 356 356 356 358 359 8 8 357 356 359 2 4 7 9 8 10 15 19 22 25 29 33 36 37 42 50 54 57 62 66 70 86
185 209 253 285 299 336 335 353 354 352 353 351 350 353 357 1 357 357 355 359 357 0 1 4 4 4 4 7 10 12 12 13 16 20 21 20 22 24 23 18 14 10 357 340
240 247 251 269 303 332 318 338 345 344 347 347 349 351 351 354 7 359 354 355 356 358 0 1 1 1 3 7 9 10 10 7 7 8 7 5 5 3 360 357 354 348 334 321
236 240 247 270 297 314 327 337 341 339 345 351 352 355 357 355 354 355 353 352 351 352 355 356 357 358 1 3 3 4 3 2 1 0 0 358 356 353 348 343 338 334 328 324
234 249 267 278 299 316 326 331 337 340 346 354 356 354 354 353 352 350 348 348 350 352 355 356 357 359 -0 1 0 360 358 356 354 353 351 349 347 345 342 338 334 329 323 318
242 255 267 279 298 311 320 326 332 341 344 347 352 350 350 351 349 348 348 350 352 354 356 357 357 358 358 358 357 357 355 353 352 350 348 344 341 338 334 330 327 324 321 316
Wind_Speed_850mb
12 7 12 15 13 27 39 36 16 39 35 29 11 7 17 30 37 27 39 47 64 66 63 60 60 68 68 66 65 63 59 55 51 48 47 50 55 59 63 66 73 77 79 82
4 1 2 16 14 13 27 26 19 39 44 14 19 21 30 32 23 44 55 62 57 56 54 49 64 70 72 72 68 67 67 64 57 54 55 54 55 61 64 68 70 74 78 78
5 2 7 4 27 20 10 17 19 27 46 8 19 17 20 37 60 57 45 40 34 36 51 65 72 75 78 74 70 68 70 67 62 60 61 59 59 61 66 70 70 73 75 76
3 7 5 13 6 26 33 34 29 30 37 41 45 35 33 34 36 34 41 40 44 56 69 74 78 82 78 80 75 68 72 70 63 61 63 63 65 66 64 68 73 75 76 77
8 7 9 17 9 10 11 15 16 21 28 39 46 38 16 34 42 33 41 47 58 67 76 79 78 81 86 87 88 76 68 75 67 61 64 63 67 69 68 68 69 71 74 72
4 6 12 8 3 11 9 7 38 37 27 34 30 6 5 54 57 59 57 67 73 78 81 83 83 86 92 94 92 86 73 69 74 66 62 65 66 68 74 74 73 72 73 72
7 5 14 9 3 7 11 6 27 36 34 33 11 13 39 43 56 61 70 81 88 92 94 92 95 96 96 99 96 90 86 76 69 73 74 68 65 69 74 81 81 80 78 77
6 5 11 4 9 5 10 23 33 32 33 30 28 38 45 52 55 72 80 88 93 100 103 102 97 92 98 99 99 96 94 86 74 70 73 74 67 65 73 84 88 89 86 84
14 8 9 40 45 26 21 14 28 34 42 48 55 61 69 74 69 75 87 95 95 96 104 101 97 91 99 99 99 101 98 94 85 78 73 70 72 68 72 82 93 96 94 92
8 15 17 36 25 28 39 26 31 37 49 53 57 63 75 80 80 81 81 84 95 106 108 108 100 100 97 99 102 102 102 95 88 85 80 74 72 75 77 83 92 101 101 98
1 16 22 30 31 54 42 43 49 53 53 56 66 77 78 81 83 80 82 93 91 100 102 102 102 102 103 101 97 98 97 99 92 85 86 82 77 77 82 85 91 99 104 101
4 12 10 18 48 45 46 55 63 70 80 69 66 74 76 81 81 88 92 93 94 88 88 94 96 99 96 93 87 92 96 96 94 89 86 84 80 79 80 83 89 95 98 98
1 22 27 27 20 21 52 57 60 61 60 71 69 70 75 82 84 85 86 89 87 86 85 88 87 87 83 83 83 86 90 94 95 85 81 82 77 74 78 80 84 89 91 94
10 19 4 19 31 50 53 56 57 62 59 55 65 65 66 67 69 73 75 72 70 72 71 69 72 74 71 71 74 77 79 82 81 81 75 73 74 70 71 76 78 88 85 86
4 21 21 32 35 39 42 48 53 56 58 60 58 58 58 61 63 63 59 57 57 55 55 62 67 69 66 65 67 69 68 68 64 65 66 67 66 65 69 75 82 84 84 82
14 14 14 25 30 35 41 46 49 52 55 57 57 56 55 53 51 49 50 50 52 53 56 61 63 66 66 63 62 61 57 51 50 51 55 56 60 61 67 74 79 83 85 86
7 5 19 23 30 34 37 38 39 43 48 50 50 49 48 49 45 46 48 48 44 46 54 60 64 65 63 60 58 56 52 47 42 43 43 50 56 57 65 68 73 72 71 77
10 11 13 16 22 27 28 28 32 35 40 42 41 40 41 46 50 49 48 52 54 51 54 58 60 61 64 64 59 54 47 41 35 32 33 35 37 43 50 55 60 65 62 68
2 5 7 11 13 14 18 24 29 34 35 36 37 39 38 39 43 47 47 54 60 65 67 64 63 62 63 61 60 55 49 43 34 26 22 19 21 23 27 35 41 47 57 58
1 3 3 6 12 12 13 15 22 26 28 32 34 36 40 45 46 48 52 53 56 57 58 62 64 64 62 60 59 58 58 59 58 52 42 29 18 9 2 10 17 23 28 33
3 1 2 6 8 10 12 15 19 22 27 33 37 40 42 41 44 49 55 60 59 58 59 60 63 64 63 61 60 60 60 59 57 54 52 48 43 41 37 30 24 19 14 13
7 4 0 4 6 9 12 14 18 22 26 30 34 38 43 45 45 44 46 53 57 58 60 60 60 60 60 57 58 59 59 55 52 49 48 46 42 39 35 29 25 21 16 12
8 5 4 5 5 6 12 15 20 25 29 33 37 40 42 44 47 53 56 52 53 55 56 57 58 59 58 56 57 58 57 55 53 51 49 47 43 38 31 27 23 18 13 9
9 8 6 6 6 8 12 16 21 24 27 28 30 34 40 42 35 40 41 45 48 51 54 55 56 55 56 57 58 57 56 56 55 54 50 45 42 39 36 34 30 26 24 22
11 11 9 7 9 13 17 20 22 23 22 23 26 28 32 36 41 44 45 46 48 51 53 53 53 54 56 56 55 55 56 56 55 53 51 50 48 45 43 41 38 36 35 33
15 12 11 11 14 17 21 24 25 26 26 25 27 30 31 34 39 43 44 45 48 50 51 53 55 57 57 57 57 56 56 55 53 52 52 51 49 48 46 45 43 42 41 41
15 15 15 15 17 20 23 26 26 24 26 29 29 32 37 41 43 45 46 48 50 51 53 54 57 58 59 60 59 58 57 55 54 54 53 52 51 51 51 50 49 48 47 46
Wind_Direction_850mb
258 193 124 298 231 202 207 222 212 247 252 250 257 332 349 337 324 325 328 326 320 323 331 335 342 340 336 333 330 330 324 317 307 304 299 284 276 268 260 249 243 242 241 239
274 294 321 175 229 266 230 243 251 259 270 293 275 332 333 318 312 322 316 314 317 323 334 347 340 336 331 332 330 325 322 321 317 310 302 294 280 268 257 251 248 245 244 244
257 143 71 349 228 227 252 244 233 251 259 321 288 281 294 301 296 295 313 330 355 359 347 344 341 337 338 330 329 324 319 316 314 313 307 297 288 274 259 253 250 247 246 246
163 53 204 239 183 207 227 244 249 263 271 276 282 297 307 58 44 18 8 1 351 341 337 335 335 334 331 326 323 324 322 313 308 308 305 302 291 282 271 257 249 247 245 244
161 190 312 309 246 197 175 260 247 254 269 275 291 295 93 18 12 4 347 341 337 335 334 334 335 330 326 326 326 320 320 323 311 301 300 295 289 284 277 265 255 249 246 244
112 180 216 256 328 215 131 282 28 28 30 16 1 12 37 335 339 335 336 334 331 329 329 329 330 327 321 322 325 328 320 318 318 303 292 294 290 280 275 267 260 252 248 246
185 219 275 246 308 49 127 245 29 27 24 20 25 345 316 326 320 323 322 322 324 322 323 322 324 323 316 315 317 321 319 313 312 313 298 286 287 282 269 265 259 255 251 249
163 191 285 29 104 178 7 28 13 9 8 357 336 327 325 326 324 322 319 319 319 318 317 319 320 320 315 313 312 311 313 311 307 307 307 290 283 279 274 263 257 253 250 247
179 168 75 63 92 77 41 29 8 355 343 339 333 326 322 321 320 317 316 316 317 315 314 314 316 316 312 314 312 307 305 307 306 302 301 297 285 278 272 262 255 252 249 247
85 2 85 103 83 38 14 6 340 333 329 328 321 320 316 316 316 316 318 315 312 311 310 309 310 309 309 310 310 306 302 301 302 300 298 296 287 278 269 263 255 252 250 247
206 58 113 70 23 353 344 334 329 328 328 324 319 316 316 315 315 315 310 311 312 309 309 306 306 304 304 307 308 304 300 299 297 296 294 291 289 282 273 266 260 254 252 251
121 54 341 298 325 335 335 338 331 326 320 319 319 315 316 311 312 313 313 314 314 313 306 305 304 303 302 303 304 300 298 296 295 296 292 287 285 284 278 270 260 255 253 250
344 307 294 303 326 310 325 326 324 321 318 318 318 314 312 313 313 314 316 316 314 311 310 310 309 307 309 305 302 297 294 292 291 290 287 284 281 280 277 272 261 254 251 250
303 340 120 320 321 330 328 325 323 321 324 320 318 319 318 320 324 324 323 320 317 315 316 317 317 316 316 311 305 300 297 293 289 286 284 276 276 277 276 265 256 249 244 243
268 327 308 312 323 330 331 333 334 334 334 333 333 332 333 331 331 333 334 332 328 329 331 330 330 329 326 320 316 311 307 300 293 286 282 276 278 277 273 264 256 249 245 239
301 324 343 336 343 345 347 347 342 341 341 339 340 340 340 337 337 344 351 353 349 349 349 347 346 342 339 332 325 320 314 306 294 285 285 286 282 279 268 256 250 245 245 241
341 356 351 355 351 351 357 350 338 343 342 344 343 345 349 350 352 357 1 8 9 7 6 5 359 356 350 346 343 336 328 316 304 294 283 274 272 271 260 248 242 236 230 225
346 355 352 347 347 354 354 350 347 353 354 350 348 350 356 2 3 3 1 9 10 16 12 16 12 9 9 5 2 356 347 337 328 313 301 287 268 251 239 231 224 220 209 192
353 7 347 342 334 348 345 358 2 2 357 355 358 3 2 2 5 10 10 13 11 11 12 14 16 17 20 20 19 22 20 16 8 1 349 321 290 262 241 230 221 211 200 190
292 318 321 322 303 321 347 0 8 7 2 4 5 5 8 11 10 8 15 17 14 10 9 13 16 18 18 21 26 31 35 40 41 43 42 39 38 45 111 197 184 179 182 182
178 223 28 317 306 331 344 7 10 3 6 4 3 5 5 5 9 5 4 6 6 6 8 10 13 14 14 17 21 25 30 37 41 44 50 54 57 60 63 68 79 90 107 134
176 175 239 293 313 330 342 5 4 358 358 357 356 356 356 358 359 8 8 357 356 359 2 4 7 9 8 10 15 19 22 25 29 33 36 37 42 50 54 57 62 66 70 86
185 209 253 285 299 336 335 353 354 352 353 351 350 353 357 1 357 357 355 359 357 0 1 4 4 4 4 7 10 12 12 13 16 20 21 20 22 24 23 18 14 10 357 340
240 247 251 269 303 332 318 338 345 344 347 347 349 351 351 354 7 359 354 355 356 358 0 1 1 1 3 7 9 10 10 7 7 8 7 5 5 3 360 357 354 348 334 321
236 240 247 270 297 314 327 337 341 339 345 351 352 355 357 355 354 355 353 352 351 352 355 356 357 358 1 3 3 4 3 2 1 0 0 358 356 353 348 343 338 334 328 324
234 249 267 278 299 316 326 331 337 340 346 354 356 354 354 353 352 350 348 348 350 352 355 356 357 359 -0 1 0 360 358 356 354 353 351 349 347 345 342 338 334 329 323 318
242 255 267 279 298 311 320 326 332 341 344 347 352 350 350 351 349 348 348 350 352 354 356 357 357 358 358 358 357 357 355 353 352 350 348 344 341 338 334 330 327 324 321 316